This is the latest recevied weather packets stored in our database for station/object AE5HO. If no packets are shown the sender has not sent any weather packets the latest 10 day(s).
| Time | Temp. | Humidity | Pressure | Rain* | Wind** | Luminosity | Snow |
|---|---|---|---|---|---|---|---|
| 1788133842 | 37.78° C | 34% | 1013.4 hPa | 0 mm | - | 26 W/m² | - |
| 1788133543 | 37.78° C | 34% | 1013.3 hPa | 0 mm | - | 26 W/m² | - |
| 1788133238 | 37.78° C | 34% | 1013 hPa | 0 mm | - | 53 W/m² | - |
| 1788132933 | 38.33° C | 34% | 1013.3 hPa | 0 mm | - | 29 W/m² | - |
| 1788132629 | 38.33° C | 34% | 1013.1 hPa | 0 mm | - | 31 W/m² | - |
| 1788132325 | 38.33° C | 33% | 1013 hPa | 0 mm | - | 27 W/m² | - |
| 1788132021 | 38.33° C | 33% | 1013 hPa | 0 mm | - | 29 W/m² | - |
| 1788131717 | 38.33° C | 33% | 1013.1 hPa | 0 mm | - | 89 W/m² | - |
| 1788131416 | 38.33° C | 32% | 1013 hPa | 0 mm | - | 32 W/m² | - |
| 1788131111 | 38.33° C | 34% | 1013.1 hPa | 0 mm | - | 32 W/m² | - |
| 1788130811 | 38.33° C | 33% | 1013.1 hPa | 0 mm | - | 35 W/m² | - |
| 1788130507 | 38.33° C | 32% | 1013.5 hPa | 0 mm | - | 34 W/m² | - |
| 1788130206 | 38.33° C | 32% | 1013.3 hPa | 0 mm | - | 29 W/m² | - |
| 1788129904 | 38.33° C | 32% | 1013.1 hPa | 0 mm | - | 33 W/m² | - |
| 1788129601 | 37.78° C | 32% | 1013.5 hPa | 0 mm | - | 31 W/m² | - |
| 1788129298 | 37.78° C | 33% | 1013.4 hPa | 0 mm | - | 32 W/m² | - |
| 1788128997 | 38.33° C | 32% | 1013.4 hPa | 0 mm | - | 35 W/m² | - |
| 1788128692 | 37.78° C | 33% | 1013.5 hPa | 0 mm | - | 31 W/m² | - |
| 1788128388 | 37.78° C | 33% | 1013.4 hPa | 0 mm | - | 33 W/m² | - |
| 1788128084 | 38.89° C | 33% | 1013.4 hPa | 0 mm | - | 38 W/m² | - |
| 1788127780 | 38.33° C | 33% | 1013.3 hPa | 0 mm | - | 93 W/m² | - |
| 1788127480 | 38.33° C | 32% | 1013.3 hPa | 0 mm | - | 143 W/m² | - |
| 1788127177 | 38.33° C | 33% | 1013.1 hPa | 0 mm | - | 39 W/m² | - |
| 1788126872 | 38.33° C | 33% | 1013.3 hPa | 0 mm | - | 38 W/m² | - |
| 1788126566 | 38.33° C | 34% | 1013.3 hPa | 0 mm | - | 42 W/m² | - |
* Rain latest hour (hover to see other rain measurements)
** Current wind speed in m/s (hover to see current wind gust speed)